CAPE
3322 3271 3308 3336 3365 3330 3137 3034 3125 3099 3022 3022 2942 2911 2919 2877 2848 2712 2462 2267 1984 1551 1180 1163 974 843 764 721 650 605 806 770 676 546 692 431 201 283 333 535 462 650 601 524 471 279 350 385 324 320 456 343 364 421 529 588 644 655 634 577 557 622 540 389 173 131 72 132 127 134 101 91 28 4 9 116 173 115 292 70 100 166 118 59 66
3468 3321 3330 3340 3310 3305 3178 3017 3070 3071 3030 2977 2982 2856 2878 2963 2884 2806 2494 2386 2049 1740 1444 1215 1066 941 784 726 658 617 726 819 696 569 524 643 368 368 342 515 515 330 694 551 365 335 355 356 255 405 403 310 360 435 503 401 455 395 703 839 757 695 609 474 219 160 120 24 140 77 158 139 47 54 7 0 0 75 66 52 140 135 80 38 28
3670 3384 3308 3335 3301 3276 3216 3068 3030 3093 3038 2999 2996 2901 2876 2940 2950 2853 2704 2371 2188 1913 1611 1388 1242 1160 926 816 691 614 759 789 768 640 527 574 592 556 477 455 393 323 358 338 512 542 643 539 329 384 652 502 577 655 674 583 273 381 530 691 705 691 680 588 181 110 82 14 8 58 114 117 98 43 164 216 183 88 26 18 66 130 181 50 0
3847 3551 3344 3342 3304 3265 3242 3159 3064 3083 3039 3009 3019 2980 2893 2903 2984 2893 2834 2608 2335 2038 1754 1556 1428 1299 1044 903 775 647 726 790 788 710 613 612 596 622 581 581 511 300 278 216 215 307 469 469 373 362 451 308 319 345 370 257 287 292 471 492 553 513 118 206 154 68 7 12 0 59 39 72 38 51 62 154 58 29 13 6 24 64 25 32 30
3912 3784 3551 3420 3348 3279 3280 3261 3203 3139 3066 2985 2985 2996 2917 2864 2950 2928 2890 2745 2540 2267 1983 1754 1574 1364 1117 863 780 718 744 760 796 726 713 718 667 627 642 566 618 462 279 252 569 333 387 403 406 449 321 358 344 293 337 335 302 396 570 447 301 224 380 303 173 134 82 54 14 6 45 66 60 81 97 76 46 33 13 14 27 4 0 0 0
3883 3934 3747 3565 3435 3354 3338 3346 3346 3304 3203 3073 2997 2936 2895 2819 2874 2982 2905 2806 2655 2431 2206 1960 1734 1476 1229 974 740 711 801 802 779 795 758 758 758 689 646 605 492 664 396 266 400 377 367 466 501 484 456 462 481 541 576 581 579 505 576 618 659 532 383 257 187 125 109 57 25 28 28 74 28 44 69 121 64 31 16 5 7 95 176 141 98
3905 4084 3922 3668 3516 3400 3385 3429 3450 3449 3367 3228 3083 2955 2819 2817 2835 2946 2974 2843 2706 2543 2328 2067 1854 1635 1357 1103 868 675 776 856 760 763 901 815 755 740 599 570 487 331 636 510 392 402 378 406 420 454 524 562 606 625 576 522 540 636 677 674 683 722 695 620 357 242 182 140 64 43 34 11 20 23 3 71 136 73 55 19 13 0 1 0 0
3966 4207 4124 3847 3592 3475 3378 3431 3502 3532 3474 3349 3198 3069 2854 2724 2860 2922 2959 2886 2747 2596 2371 2169 1968 1782 1582 1324 1077 799 722 836 786 709 808 823 770 706 676 291 447 327 366 357 378 505 619 684 756 774 749 769 761 795 816 810 805 853 872 874 843 781 719 655 572 454 501 441 239 229 62 62 63 49 140 81 54 19 98 111 46 14 0 5 28
3997 4250 4252 4020 3706 3545 3440 3399 3524 3606 3543 3402 3261 3143 2991 2764 2827 2957 2949 2906 2752 2619 2496 2260 2091 1925 1754 1559 1299 996 743 753 736 627 427 759 794 750 670 575 353 389 350 364 466 508 633 738 783 792 862 1174 862 798 819 812 768 763 814 896 904 845 785 732 704 641 570 536 505 531 444 401 27 16 12 12 8 14 4 133 167 70 14 1 1
3892 4151 4277 4104 3822 3583 3485 3427 3505 3642 3658 3540 3388 3308 3159 2925 2932 3043 2986 2897 2794 2665 2534 2412 2222 2024 1852 1673 1470 1216 906 711 696 366 443 480 713 683 619 556 358 360 398 368 510 572 607 692 819 1407 1488 1738 1434 1024 960 929 853 758 737 858 944 941 879 846 813 770 706 640 598 561 450 104 52 27 27 19 2 4 52 71 110 56 10 13 95
3707 3862 4165 4138 3911 3616 3518 3470 3494 3604 3702 3690 3554 3464 3388 3143 2984 3148 3112 2958 2802 2709 2600 2489 2370 2210 2045 1861 1661 1464 1296 990 720 409 442 508 508 430 372 514 440 364 330 286 330 543 620 689 703 1168 1710 1873 1818 1560 1043 913 887 850 830 901 1000 992 1010 999 944 873 823 714 618 506 142 129 93 61 30 8 4 16 11 0 0 0 2 8 6
3461 3550 3855 4169 4043 3798 3662 3598 3542 3562 3686 3776 3712 3592 3508 3342 3098 3186 3266 3146 2942 2757 2681 2600 2513 2399 2285 2138 2005 1849 1570 1244 868 640 517 504 467 338 248 383 382 494 346 346 452 566 694 776 892 816 896 845 776 932 1027 688 521 723 841 884 896 961 959 885 814 790 761 703 631 593 528 462 167 104 81 80 20 1 0 17 26 87 111 103 29
3199 3302 3504 4157 4199 4020 3843 3786 3687 3623 3660 3793 3839 3733 3604 3445 3250 3224 3371 3322 3199 3043 2850 2763 2694 2620 2537 2431 2270 2010 1753 1536 1263 991 814 637 466 319 529 586 630 641 554 550 672 804 887 700 918 977 1000 1446 2038 988 682 376 156 170 258 326 489 512 395 387 418 430 507 526 485 450 420 201 48 41 103 111 12 9 0 77 6 2 6 53 192
2953 3097 3281 3993 4238 4174 4020 3963 3908 3816 3812 3900 3972 3883 3702 3580 3410 3343 3450 3406 3317 3220 3112 2992 2893 2841 2746 2518 2308 2246 2181 2042 1791 1523 1181 952 788 524 587 632 648 690 684 824 864 833 729 816 896 962 968 908 684 404 475 504 234 392 509 581 589 581 574 528 506 521 526 579 607 632 684 585 471 394 336 249 207 404 310 91 79 203 236 346 358
2649 2891 3158 3839 4205 4279 4228 4176 4174 4149 4146 4136 4148 4082 3893 3718 3592 3477 3549 3549 3475 3379 3284 3192 3082 2931 2781 2650 2573 2497 2455 2248 2026 1824 1486 1248 668 571 639 660 684 696 678 780 803 771 714 799 836 857 1028 915 792 684 561 302 170 166 351 909 1037 924 821 796 795 936 945 863 757 660 788 867 954 1040 912 749 575 446 253 74 12 78 298 466 270
2619 2786 3210 3868 4286 4474 4492 4481 4510 4546 4501 4377 4310 4238 4068 3892 3717 3604 3653 3604 3527 3450 3365 3251 3138 2999 2870 2748 2689 2639 2512 2296 2079 1865 1519 1014 477 710 438 419 374 518 564 657 646 730 670 695 761 834 709 710 632 496 265 327 330 298 571 930 1336 1388 1260 1108 1018 1031 935 892 832 822 834 950 1002 844 637 593 532 412 342 223 30 0 0 24 0
2886 3050 3436 4113 4556 4776 4804 4770 4754 4756 4633 4527 4430 4310 4178 4002 3834 3666 3622 3614 3524 3420 3313 3197 3113 3015 2914 2805 2734 2653 2472 2221 1937 1689 1359 948 853 700 578 322 425 353 353 454 477 381 369 534 552 458 454 442 366 310 365 473 446 680 1017 1255 1334 1329 1307 1296 1269 1098 905 881 819 813 834 839 736 618 589 533 433 442 446 324 0 17 94 0 0
3361 3541 4007 4636 4932 5072 4978 4878 4806 4767 4693 4567 4404 4286 4156 4021 3866 3835 3696 3581 3512 3429 3335 3238 3147 3054 2968 2890 2755 2583 2384 2075 1809 1606 1313 1208 1026 729 547 538 476 579 526 227 249 509 1030 1100 665 505 543 497 115 157 361 498 734 1011 1187 1329 1304 1260 1396 1299 988 968 961 864 644 485 474 464 391 351 333 308 309 332 380 362 0 0 0 0 0
4060 4310 4786 5081 5151 5140 5011 4872 4788 4722 4639 4510 4355 4202 4088 4106 4012 3919 3758 3628 3508 3401 3321 3258 3185 3103 3013 2920 2746 2477 2235 1979 1776 1547 1456 1366 975 642 720 571 556 380 561 538 498 418 309 819 1137 531 450 210 166 344 522 741 1072 1290 1362 1336 1315 1244 1054 705 656 658 520 487 453 385 363 326 333 350 275 12 0 0 0 0 0 0 169 133 34
4765 5024 5207 5214 5178 5104 4990 4873 4752 4657 4560 4444 4257 4078 4038 4055 3984 3969 3816 3669 3579 3497 3397 3357 3308 3235 3093 2939 2704 2417 2162 1975 1727 1554 1507 1263 1072 985 684 403 480 308 672 411 410 3 11 166 882 649 528 95 2 174 508 864 1098 1214 1274 1325 1269 1222 1009 644 421 440 438 376 486 446 386 392 378 350 384 446 473 417 322 339 298 217 0 0 0
5272 5269 5239 5211 5124 5033 4923 4800 4717 4593 4440 4222 4041 3948 3909 3939 3992 3988 3897 3782 3669 3557 3466 3376 3276 3187 3038 2853 2683 2535 2334 2123 1839 1654 1364 1086 1033 728 520 494 342 614 625 289 170 0 31 85 451 620 514 186 136 59 49 260 643 971 1255 1322 1283 1185 877 577 317 363 291 33 39 59 49 151 226 338 264 230 298 192 226 242 133 23 2 172 278
5298 5192 5155 5064 4980 4880 4802 4738 4603 4438 4238 4004 3756 3727 3633 3590 3792 3916 3896 3817 3689 3575 3452 3359 3221 3090 2942 2807 2682 2569 2326 2038 1916 1598 1315 983 772 471 574 556 445 702 726 289 5 8 33 213 542 729 531 495 464 473 546 1103 1201 1283 1343 1315 1170 737 540 367 220 0 0 8 9 43 7 0 0 0 55 76 14 30 1 2 78 227 362 389 384
5191 5079 5017 4958 4871 4769 4744 4680 4608 4434 4152 3866 3453 3216 3038 3167 3436 3614 3640 3662 3626 3483 3329 3202 3087 2968 2811 2700 2645 2529 2182 1888 1599 1389 1009 830 558 553 786 531 438 597 241 198 323 357 488 758 615 178 466 730 924 1103 1088 1058 1185 1210 1153 867 622 464 363 270 223 190 165 120 0 0 0 3 30 47 55 33 5 3 12 0 0 0 0 0 0
5106 4978 4833 4720 4630 4488 4350 4204 4098 3883 3689 3319 3041 2846 2809 3087 3383 3559 3600 3568 3472 3379 3231 3120 3002 2868 2737 2610 2423 2279 2089 1762 1446 1214 993 670 630 556 624 638 70 291 440 330 411 739 995 811 441 518 763 1038 1137 1136 1072 1060 1073 968 724 559 387 287 260 255 216 54 0 0 0 0 2 44 64 34 46 42 58 1 0 0 0 0 0 0 0
5016 4910 4772 4631 4455 4264 3998 3855 3707 3539 3157 3014 2869 3014 3082 3260 3345 3450 3489 3453 3334 3153 3066 3009 2901 2725 2571 2483 2319 1982 1618 1430 1319 1111 800 785 668 466 368 52 0 288 684 710 758 761 825 802 827 901 1069 1153 1123 938 788 699 678 647 568 380 251 211 208 132 0 0 0 0 6 58 43 62 24 19 97 194 115 0 0 0 0 0 0 0 0
4967 4820 4621 4377 4111 3732 3295 3177 3116 3032 2888 2884 3018 3138 3166 3192 3184 3260 3254 3184 3080 2986 2867 2712 2585 2454 2320 2161 1947 1645 1358 1284 1178 995 983 734 522 371 0 0 244 909 1046 964 838 837 860 977 1052 1063 1004 925 839 799 825 852 850 690 254 0 0 0 0 0 0 0 0 6 80 56 5 0 2 8 0 6 0 0 0 0 0 0 0 0 0
4766 4508 4167 3694 3332 3049 2824 2744 2898 2977 3018 3009 2980 3008 3025 3031 3009 2971 2958 2924 2827 2719 2577 2405 2204 2029 1886 1724 1580 1479 1446 1388 1251 996 829 510 174 0 0 0 314 642 824 710 575 490 579 696 772 824 864 900 892 829 757 442 0 0 0 0 0 0 0 0 0 0 16 27 23 3 0 0 0 0 0 0 0 0 0 0 0 0 0 0 0
4158 3934 3499 3305 2956 2810 2737 2766 2724 2797 2819 2832 2838 2841 2836 2852 2836 2811 2775 2742 2666 2506 2269 2073 1942 1828 1722 1612 1526 1474 1443 1403 979 819 557 349 0 0 547 2 0 21 275 376 388 319 393 699 633 605 552 526 348 7 0 0 0 0 0 0 0 0 0 22 137 23 11 10 0 0 0 0 0 1 0 0 0 0 0 0 0 0 0 0 0
3530 3410 3020 2765 2465 2602 2682 2667 2667 2643 2625 2611 2651 2596 2606 2556 2427 2366 2325 2297 2217 2081 1976 1868 1803 1724 1622 1602 1604 1554 1468 1166 953 588 97 0 458 36 0 0 0 0 0 380 398 543 671 566 341 323 350 236 12 0 0 0 93 121 0 0 0 0 0 0 13 0 0 0 0 0 0 0 0 0 0 0 0 0 0 0 0 0 0 0 0
3051 2808 2582 2520 2547 2604 2628 2668 2626 2566 2536 2510 2486 2397 2306 2188 2188 2128 2022 1974 1870 1786 1747 1752 1723 1706 1627 1594 1517 1390 1121 972 706 184 0 0 0 0 0 0 0 61 365 517 515 470 220 0 0 84 202 207 195 179 170 166 180 191 10 4 3 0 0 3 6 0 0 5 0 47 55 0 0 0 0 0 0 0 0 0 0 0 0 0 0
2608 2472 2485 2466 2499 2511 2499 2486 2429 2310 2267 2176 2094 2094 2070 1986 1908 1821 1766 1743 1690 1664 1605 1603 1660 1644 1557 1409 1262 1073 671 506 449 61 269 202 166 0 0 0 0 398 372 126 28 75 316 359 372 379 362 361 345 304 302 217 212 226 227 140 10 0 0 0 0 0 0 0 0 0 0 0 0 0 0 0 0 0 0 0 0 0 0 0 0
2441 2434 2352 2399 2482 2506 2433 2366 2189 2057 1884 1798 1692 1707 1709 1720 1701 1675 1680 1652 1585 1500 1411 1363 1286 1161 1033 1076 1076 786 565 518 631 587 513 498 385 138 172 328 270 0 0 0 5 235 293 339 302 330 157 3 2 70 156 212 240 232 251 254 167 106 40 0 0 0 0 0 0 0 0 0 0 0 0 0 0 0 0 0 0 0 0 0 0
2235 2311 2311 2330 2336 2358 2284 2107 1952 1882 1776 1676 1580 1570 1566 1538 1502 1443 1404 1368 1322 1278 1322 1250 1148 1010 770 808 803 633 326 453 656 745 738 619 544 518 386 15 0 0 186 223 66 204 258 269 7 2 0 5 28 127 227 294 286 246 234 197 82 0 0 0 0 0 0 0 0 0 0 0 0 0 0 0 0 0 0 0 0 0 0 0 0
1902 1972 2055 1994 1908 1846 1836 1914 1877 1835 1655 1594 1519 1525 1496 1473 1363 1249 1203 1173 1094 1089 1046 1017 1061 987 734 555 403 421 497 670 793 850 830 799 799 636 203 346 384 298 254 277 219 42 0 0 0 0 48 30 52 135 151 165 144 78 0 0 0 0 0 1 0 0 0 0 0 0 0 0 0 0 0 0 0 0 0 0 0 0 0 0 0
1992 2191 1966 1792 1770 1747 1706 1793 1764 1703 1470 1397 1364 1342 1322 1218 1187 1092 1062 1064 1054 987 904 818 789 834 734 493 494 535 636 694 725 773 859 830 733 573 539 632 640 500 320 214 50 0 0 0 8 0 0 0 0 0 0 0 0 8 4 2 2 0 0 0 1 0 0 0 0 0 0 0 0 0 0 0 0 0 0 0 0 0 0 0 0
1930 1754 1718 1706 1649 1575 1438 1355 1307 1281 1243 1244 1245 1195 1102 1017 854 729 716 865 854 757 670 731 675 545 176 463 461 488 540 496 404 357 364 412 422 483 546 587 464 319 277 53 0 0 0 0 0 0 0 0 0 0 0 0 0 0 0 0 0 0 0 0 0 0 0 0 0 0 0 0 0 0 0 0 0 0 0 0 0 0 0 0 0
1689 1599 1532 1373 1230 1092 965 968 974 977 951 885 808 740 641 555 568 579 643 674 636 531 528 457 119 0 0 126 429 496 434 334 346 383 422 470 414 363 343 298 266 168 0 0 0 0 0 7 0 0 0 0 0 0 0 0 0 0 0 0 0 0 0 0 0 0 0 0 0 0 0 0 0 0 0 0 0 0 0 0 0 0 0 0 0
1517 1398 1251 1156 1108 1021 892 777 794 954 1007 962 896 767 618 484 462 565 598 562 526 0 13 0 0 0 0 90 400 290 196 209 222 281 310 380 411 381 304 25 0 0 0 0 0 0 0 0 0 0 0 0 0 0 0 0 0 0 0 0 0 0 0 0 0 0 0 0 0 0 0 0 0 0 0 0 0 0 0 0 0 0 0 0 0
1392 1229 1072 1092 950 799 710 616 648 727 726 769 723 612 524 534 582 639 315 0 0 0 0 0 0 0 0 214 182 158 164 51 0 0 0 0 0 0 0 0 0 0 0 0 8 23 0 0 0 0 0 0 0 0 0 0 0 0 0 0 0 0 0 0 0 0 0 0 0 0 0 0 0 0 0 0 0 0 0 0 0 0 0 0 0
857 985 908 912 876 776 653 628 610 573 490 412 254 147 533 592 537 58 0 0 0 0 0 0 0 221 269 176 13 58 2 0 0 0 0 0 0 0 0 0 0 0 0 0 0 0 0 0 0 0 0 0 0 0 0 0 0 0 0 0 0 0 0 0 0 0 0 0 0 0 0 0 0 0 0 0 0 0 0 0 0 0 0 0 0
790 893 875 814 746 755 655 524 390 344 285 292 240 181 106 479 587 514 416 242 0 0 0 67 330 384 333 178 0 0 0 0 0 0 0 0 0 0 0 0 0 0 0 0 0 0 0 0 0 0 0 0 0 0 0 0 0 0 0 0 0 0 0 0 0 0 0 0 0 0 0 0 0 0 0 0 0 0 0 0 0 0 0 0 0
727 686 723 746 673 602 413 283 536 874 469 417 295 295 266 192 70 15 299 232 46 0 0 66 118 64 0 0 0 0 0 0 0 0 0 0 0 0 0 0 0 0 0 0 0 0 0 0 0 0 0 0 0 0 0 0 0 0 0 0 0 0 0 0 0 0 0 0 0 0 0 0 0 0 0 0 0 0 0 0 0 0 0 0 0
266 584 673 638 609 542 472 614 745 614 448 481 404 588 490 477 350 316 275 203 122 0 0 0 0 0 0 0 0 0 0 0 0 0 0 0 0 0 0 0 0 0 0 0 0 0 0 0 0 0 0 0 0 0 0 0 0 0 0 0 0 0 0 0 0 0 0 0 0 0 0 0 0 0 0 0 0 0 0 0 0 0 0 0 0
216 485 737 539 359 542 670 726 691 612 590 515 408 414 308 345 395 450 295 234 147 0 0 0 0 0 0 0 0 0 0 0 0 0 0 0 0 0 0 0 0 0 0 0 0 0 0 0 0 0 0 0 0 0 0 0 0 0 0 0 0 0 0 0 0 0 0 0 0 0 0 0 0 0 0 0 0 0 0 0 0 0 0 0 0
60 160 584 492 444 516 461 563 487 454 341 275 271 275 312 218 216 228 198 172 146 33 0 0 0 0 0 0 0 0 0 0 0 0 0 0 0 0 0 0 0 0 1 0 0 0 0 0 0 0 0 0 0 0 0 0 0 0 0 0 0 0 0 0 0 0 0 0 0 0 0 0 0 0 0 0 0 0 0 0 0 0 0 0 0
282 193 226 456 523 421 477 477 328 255 300 113 124 100 84 56 16 0 0 0 0 0 0 0 0 0 0 0 0 0 0 0 0 0 0 0 0 0 1 4 2 0 0 0 0 0 0 0 0 0 0 0 0 0 0 0 0 0 0 0 0 0 0 0 0 0 0 0 0 0 0 0 0 0 0 0 0 0 0 0 0 0 0 0 0
346 332 107 128 115 210 317 249 242 276 214 124 178 172 107 68 15 0 0 0 0 0 0 0 0 0 0 0 0 0 0 0 0 0 0 0 0 0 0 0 0 0 0 1 0 0 0 0 0 0 0 0 0 0 0 0 0 0 0 0 0 0 0 0 0 0 0 0 0 0 0 0 0 0 0 0 0 0 0 0 0 0 0 0 0
433 319 217 200 100 265 290 225 141 164 191 200 166 96 73 0 0 0 0 0 0 0 0 0 0 0 0 0 0 0 0 0 0 0 0 0 0 0 6 9 8 4 2 0 0 0 0 0 0 0 0 0 0 0 0 0 0 0 0 0 0 0 0 0 0 0 0 0 0 0 0 0 0 0 0 0 0 0 0 0 0 0 0 0 0
218 208 222 193 170 148 189 208 232 188 119 99 76 47 0 0 0 0 0 19 0 0 0 0 0 0 0 0 0 0 0 0 0 0 3 13 13 12 11 7 4 0 0 0 0 0 0 0 0 0 0 0 0 0 0 0 0 0 0 0 0 0 0 0 0 0 0 0 0 0 0 0 0 0 0 0 0 0 0 0 0 0 0 0 0
188 256 248 241 254 300 298 277 243 156 96 85 60 58 11 0 0 13 24 0 0 0 0 0 0 0 0 0 0 0 0 0 0 0 0 2 3 1 0 0 0 0 0 0 0 0 0 0 0 0 0 0 0 0 0 0 0 0 0 0 0 0 0 0 0 0 0 0 0 0 0 0 0 0 0 0 0 0 0 0 0 0 0 0 0
229 271 262 228 179 183 169 189 131 78 65 44 0 10 8 0 0 0 0 0 0 0 0 3 8 8 0 8 9 8 8 0 0 0 0 0 0 1 0 0 0 0 0 0 0 0 0 0 0 0 0 0 0 0 0 0 0 0 0 0 0 0 0 0 0 0 0 0 0 0 0 0 0 0 0 0 0 0 0 0 0 0 0 0 0
Wind_Speed
14 13 14 14 14 14 14 13 14 12 12 12 12 10 11 12 13 15 15 16 18 20 22 24 27 28 29 29 30 31 32 31 31 31 31 32 33 34 35 37 37 35 35 33 31 30 28 28 29 31 31 30 29 28 27 27 27 27 26 26 25 26 27 26 25 22 nan 26 26 25 25 nan nan nan nan 26 26 25 26 nan nan 35 39 nan nan
14 15 14 14 15 14 14 13 12 12 12 12 11 10 11 12 14 15 16 16 18 20 23 25 27 29 30 31 31 32 33 33 33 33 34 35 35 34 36 38 38 38 36 34 31 29 28 29 30 32 32 32 29 28 27 28 28 27 27 28 27 27 27 28 25 25 23 nan 26 nan 26 27 nan nan nan nan nan nan nan nan 32 35 nan nan nan
15 15 15 15 15 13 14 13 12 12 12 10 10 11 12 13 14 15 15 16 17 21 24 26 28 30 31 32 32 32 34 35 35 37 38 38 37 36 37 39 40 39 37 35 32 29 28 30 33 34 33 32 30 29 29 29 30 29 27 28 29 29 29 29 29 27 nan nan nan nan 27 28 nan nan 28 29 28 nan nan nan nan 35 37 nan nan
16 16 16 16 14 12 13 13 13 12 11 9 11 13 13 13 13 14 14 16 19 21 25 27 28 30 32 33 34 35 37 38 39 40 41 40 39 37 36 37 39 40 38 36 34 31 30 31 33 35 34 34 32 31 31 30 30 29 29 29 30 30 30 31 31 nan nan nan nan nan nan nan nan nan nan 27 nan nan nan nan nan nan nan nan nan
15 17 18 18 15 13 13 12 12 12 12 11 13 14 14 14 13 14 15 17 20 22 24 26 28 30 32 34 36 38 40 42 43 43 41 39 39 37 36 36 38 41 41 38 36 33 31 32 33 35 36 35 34 34 33 32 30 30 30 30 31 32 32 32 31 30 nan nan nan nan nan nan nan nan nan nan nan nan nan nan nan nan nan nan nan
15 17 18 19 17 15 13 12 11 12 13 13 14 14 13 13 14 14 17 18 20 22 25 26 28 31 32 35 37 39 41 43 45 44 43 44 43 39 37 37 39 42 43 41 38 34 32 32 33 34 36 37 35 35 35 34 33 32 32 32 34 35 34 32 31 30 28 nan nan nan nan nan nan nan nan 28 nan nan nan nan nan nan 40 38 nan
14 16 18 19 18 16 14 12 11 12 13 13 12 12 11 12 15 17 17 18 20 22 25 29 29 32 34 35 38 40 42 44 46 45 44 45 46 44 41 39 39 42 44 44 41 37 33 32 32 34 37 38 37 36 36 35 34 33 33 34 36 37 36 34 32 31 30 29 nan nan nan nan nan nan nan nan 28 nan nan nan nan nan nan nan nan
14 15 17 18 18 17 15 12 12 12 12 11 11 11 10 11 12 14 17 19 22 25 28 31 32 33 35 37 39 40 42 45 49 50 49 49 48 47 46 44 43 43 45 45 44 40 36 35 35 36 38 39 38 36 37 36 37 36 36 36 37 37 35 33 33 33 32 32 32 32 nan nan nan nan 31 nan nan nan nan 41 nan nan nan nan nan
14 14 15 17 18 17 16 14 12 12 12 11 11 11 11 10 9 12 17 22 24 27 29 31 33 35 37 40 41 42 44 47 50 53 53 52 50 50 50 49 47 46 46 45 44 42 38 35 35 37 38 40 39 37 37 38 40 39 38 38 36 36 34 34 34 34 34 35 34 37 36 35 nan nan nan nan nan nan nan 47 43 nan nan nan nan
15 13 13 15 17 17 18 17 15 14 12 11 11 12 11 10 9 14 20 24 26 28 30 32 34 37 39 41 42 43 45 47 53 61 59 56 56 53 51 50 48 47 47 44 41 41 39 35 35 38 39 39 39 38 39 41 42 41 40 41 39 38 36 35 35 35 36 36 36 38 38 37 nan nan nan nan nan nan nan nan 47 nan nan nan nan
16 14 12 14 17 19 19 18 18 15 13 11 11 12 12 12 15 17 20 23 26 28 30 32 34 35 37 39 41 42 45 48 58 62 63 62 58 54 51 49 47 47 48 44 39 38 36 34 36 36 35 36 37 37 38 40 41 41 41 43 43 43 40 38 37 38 37 37 38 41 40 37 nan nan nan nan nan nan nan nan nan nan nan nan nan
17 15 13 14 17 20 20 19 19 16 13 11 12 13 14 17 19 21 22 24 26 28 30 32 34 36 36 37 40 42 44 51 60 62 62 61 57 51 47 46 46 47 46 42 37 35 34 36 38 38 37 36 37 39 39 39 41 43 43 41 41 40 41 42 40 38 39 40 42 42 39 36 36 39 nan nan nan nan nan nan nan nan 45 44 nan
19 17 16 16 17 20 20 19 18 16 13 12 13 15 17 20 21 23 25 26 28 29 31 34 36 37 38 40 41 44 46 54 60 63 62 61 58 51 46 45 45 45 44 41 37 36 36 38 37 36 35 36 39 42 41 38 35 37 41 40 38 35 32 33 37 39 42 43 42 37 37 37 nan nan 41 42 nan nan nan nan nan nan nan nan 48
23 21 19 18 18 20 20 19 17 15 15 15 16 16 19 21 23 25 27 29 31 31 32 36 38 40 40 41 44 46 47 55 61 63 64 65 59 51 43 42 41 42 41 40 39 38 37 40 40 39 38 40 44 45 44 45 43 43 44 42 36 30 29 32 36 38 41 41 38 35 37 43 41 41 41 42 42 39 42 nan nan 45 44 46 48
26 25 22 20 21 20 19 18 17 17 18 18 18 19 20 22 25 28 30 32 34 35 35 38 40 41 42 43 44 47 47 58 61 63 64 63 55 42 38 38 38 39 40 40 40 40 41 41 41 40 42 45 45 48 47 45 44 43 42 37 31 29 31 33 38 40 39 38 37 38 39 42 39 36 38 42 40 40 44 nan nan nan 45 48 47
28 27 24 23 22 21 20 20 20 20 21 22 21 22 23 24 27 30 33 34 35 37 36 39 42 43 44 45 46 48 50 60 61 62 62 63 55 43 39 39 39 39 40 42 42 43 44 43 43 45 42 43 47 50 48 47 47 43 38 31 29 31 34 35 35 35 36 39 41 41 41 41 41 41 41 42 43 45 47 47 nan nan nan nan nan
30 29 26 25 24 22 21 23 23 24 24 25 25 26 27 28 30 33 36 38 39 39 40 41 43 44 45 46 48 49 52 58 62 63 66 71 62 49 45 43 43 43 43 43 43 43 42 44 45 43 42 41 43 44 44 47 42 38 34 32 34 36 36 37 35 33 33 36 39 41 41 41 41 41 41 41 44 46 48 47 nan nan nan nan nan
32 32 29 28 26 23 23 25 26 26 27 28 29 30 31 32 34 36 39 41 42 42 44 46 46 46 48 49 50 51 53 57 65 66 69 69 63 54 49 47 44 44 45 46 47 47 45 45 42 40 40 40 41 41 38 36 34 33 35 36 38 40 40 40 38 38 39 41 41 40 39 38 38 38 39 40 42 48 52 47 nan nan nan nan nan
35 34 33 31 29 27 26 28 29 29 30 31 33 33 34 36 37 39 41 43 45 47 49 49 48 48 50 50 53 55 54 56 63 66 66 64 59 52 51 49 47 47 48 49 49 50 47 42 42 42 44 39 36 36 37 40 38 38 39 40 40 41 42 43 43 44 45 44 43 43 42 41 42 43 42 nan nan nan nan nan nan nan 40 33 nan
38 38 37 35 32 31 30 31 32 32 34 35 35 36 38 39 40 42 43 46 48 49 50 49 48 49 51 54 53 54 54 54 58 65 63 61 60 54 51 50 50 50 49 50 51 nan nan 42 43 44 44 nan nan 35 39 46 43 41 42 42 42 41 45 45 45 47 48 47 44 43 42 42 43 44 45 46 47 50 50 46 45 42 nan nan nan
44 42 40 37 35 33 32 33 35 34 36 37 38 40 41 42 43 44 46 49 51 52 53 51 49 50 52 54 54 52 54 58 57 61 62 61 60 57 51 52 52 52 50 50 50 nan nan nan 40 36 34 32 32 nan nan 43 42 43 44 44 44 46 48 47 47 45 46 nan nan nan nan 44 44 45 46 47 47 46 44 41 38 nan nan 34 32
47 44 41 38 36 34 34 35 36 37 38 40 41 43 42 43 44 46 47 50 53 56 57 56 56 55 53 52 52 52 56 62 57 57 59 59 59 56 53 52 54 52 51 48 nan nan nan 40 37 31 28 32 36 39 43 45 45 45 45 49 51 49 47 49 48 nan nan nan nan nan nan nan nan nan nan nan nan nan nan nan nan 33 35 36 35
50 47 43 39 37 36 37 39 39 39 41 42 45 45 43 42 44 47 50 53 57 59 60 59 58 54 49 46 48 51 54 56 61 58 58 60 60 56 57 55 53 50 48 45 42 40 38 37 37 35 33 36 44 48 50 52 50 47 51 51 50 50 49 48 48 46 45 45 nan nan nan nan nan nan nan nan nan nan nan nan nan nan nan nan nan
53 51 46 41 39 40 41 42 42 42 44 45 46 46 43 43 46 49 53 56 57 59 57 55 50 47 45 46 48 50 52 53 55 59 58 60 58 56 55 54 nan 47 45 42 39 38 38 39 43 44 46 52 56 54 52 51 49 52 52 51 50 50 50 49 48 nan nan nan nan nan nan nan nan nan nan nan nan nan nan nan nan nan nan nan nan
56 52 47 44 44 44 45 45 45 45 45 45 45 44 44 46 49 51 54 55 55 55 52 48 46 45 47 49 51 52 53 53 53 53 57 57 56 53 51 nan nan 44 43 40 40 39 40 46 50 49 50 55 58 55 50 50 51 50 50 50 50 51 51 49 nan nan nan nan nan nan nan nan nan nan nan 33 33 nan nan nan nan nan nan nan nan
55 52 48 47 47 48 47 47 47 46 44 44 44 44 46 49 51 52 52 51 51 50 47 45 45 47 49 51 53 54 54 53 51 50 51 53 51 50 nan nan 45 43 42 43 44 46 48 47 47 48 51 53 51 46 46 46 47 47 47 nan nan nan nan nan nan nan nan nan nan nan nan nan nan nan nan nan nan nan nan nan nan nan nan nan nan
53 51 50 49 50 48 47 46 46 46 46 47 47 48 50 52 53 51 49 48 47 46 46 46 46 49 52 53 55 56 54 52 51 51 52 51 47 nan nan nan 44 43 42 43 44 43 43 42 41 44 48 52 49 48 47 48 nan nan nan nan nan nan nan nan nan nan nan nan nan nan nan nan nan nan nan nan nan nan nan nan nan nan nan nan nan
51 52 53 51 50 49 47 50 50 48 48 49 48 49 50 51 51 48 47 46 46 45 46 47 48 51 53 54 56 56 55 53 52 52 50 48 nan nan 44 nan nan nan 43 43 43 43 42 41 43 45 48 49 46 nan nan nan nan nan nan nan nan nan nan nan 43 nan nan nan nan nan nan nan nan nan nan nan nan nan nan nan nan nan nan nan nan
52 54 53 52 51 50 48 48 50 51 51 52 51 49 46 44 47 47 42 39 42 48 48 48 49 51 54 56 57 56 55 52 48 48 nan nan 48 nan nan nan nan nan nan 46 45 44 44 44 44 46 47 47 nan nan nan nan nan 44 nan nan nan nan nan nan nan nan nan nan nan nan nan nan nan nan nan nan nan nan nan nan nan nan nan nan nan
51 52 52 52 51 50 49 49 50 51 52 52 52 51 52 50 45 44 42 40 39 42 51 50 53 53 54 54 55 58 52 48 50 53 nan nan nan nan nan nan nan nan 46 47 46 44 44 nan nan nan 47 47 47 46 45 44 42 40 nan nan nan nan nan nan nan nan nan nan nan nan nan nan nan nan nan nan nan nan nan nan nan nan nan nan nan
49 49 50 51 51 50 50 50 49 50 51 51 50 50 49 51 53 50 45 42 46 49 56 60 62 60 58 55 47 43 46 53 53 nan 53 53 53 nan nan nan nan 45 48 48 nan nan 45 45 45 45 45 45 44 43 41 41 40 41 41 42 nan nan nan nan nan nan nan nan nan nan nan nan nan nan nan nan nan nan nan nan nan nan nan nan nan
47 48 49 49 51 51 51 50 50 51 50 49 49 50 51 52 49 50 51 52 54 55 56 61 64 64 62 59 53 44 42 46 52 51 51 52 51 51 49 48 45 nan nan nan nan 44 47 46 44 42 41 nan nan nan 40 42 44 44 43 42 38 35 nan nan nan nan nan nan nan nan nan nan nan nan nan nan nan nan nan nan nan nan nan nan nan
48 48 48 49 50 51 50 49 50 51 52 51 50 50 50 50 52 51 50 57 62 60 59 58 58 57 57 53 51 49 49 47 49 51 51 51 51 50 48 nan nan nan 49 47 nan 44 42 41 nan nan nan nan nan 41 43 45 45 44 41 38 nan nan nan nan nan nan nan nan nan nan nan nan nan nan nan nan nan nan nan nan nan nan nan nan nan
48 47 48 49 51 50 50 51 52 52 52 52 52 52 51 51 52 53 55 55 56 57 59 60 58 57 53 51 52 52 51 51 50 51 52 51 51 50 48 43 42 42 46 46 45 nan nan nan nan nan nan nan nan 43 43 43 42 nan nan nan nan nan nan nan nan nan nan nan nan nan nan nan nan nan nan nan nan nan nan nan nan nan nan nan nan
49 51 55 52 51 51 52 52 52 52 52 52 53 54 54 52 51 54 56 57 56 55 54 54 52 49 49 48 48 51 52 52 52 51 51 50 50 49 49 46 43 41 41 41 nan nan nan nan nan nan nan nan nan nan nan nan nan nan nan nan nan nan nan nan nan nan nan nan nan nan nan nan nan nan nan nan nan nan nan nan nan nan nan nan nan
51 51 52 53 52 52 52 52 53 52 51 51 53 55 53 53 54 56 56 56 56 56 53 50 47 47 49 47 47 49 50 50 50 49 48 48 48 48 45 43 43 41 41 nan nan nan nan nan nan nan nan nan nan nan nan nan nan nan nan nan nan nan nan nan nan nan nan nan nan nan nan nan nan nan nan nan nan nan nan nan nan nan nan nan nan
51 52 52 52 51 51 52 53 53 52 50 51 54 55 54 55 57 58 56 55 54 53 52 49 47 nan nan 42 45 46 46 47 46 46 45 44 41 39 40 43 42 41 nan nan nan nan nan nan nan nan nan nan nan nan nan nan nan nan nan nan nan nan nan nan nan nan nan nan nan nan nan nan nan nan nan nan nan nan nan nan nan nan nan nan nan
52 52 52 52 53 53 53 52 51 53 53 54 55 56 57 58 57 56 55 54 53 nan nan nan nan nan nan nan 41 41 44 44 45 44 42 42 40 39 39 nan nan nan nan nan nan nan nan nan nan nan nan nan nan nan nan nan nan nan nan nan nan nan nan nan nan nan nan nan nan nan nan nan nan nan nan nan nan nan nan nan nan nan nan nan nan
53 57 58 58 56 54 51 48 48 51 53 55 56 58 59 58 55 51 50 nan nan nan nan nan nan nan nan 43 43 43 45 nan nan nan nan nan nan nan nan nan nan nan nan nan nan nan nan nan nan nan nan nan nan nan nan nan nan nan nan nan nan nan nan nan nan nan nan nan nan nan nan nan nan nan nan nan nan nan nan nan nan nan nan nan nan
54 55 56 58 54 52 50 48 49 52 53 55 55 56 56 53 49 nan nan nan nan nan nan nan nan 41 42 43 nan nan nan nan nan nan nan nan nan nan nan nan nan nan nan nan nan nan nan nan nan nan nan nan nan nan nan nan nan nan nan nan nan nan nan nan nan nan nan nan nan nan nan nan nan nan nan nan nan nan nan nan nan nan nan nan nan
57 59 58 58 57 55 53 52 52 52 51 52 54 54 53 49 45 43 42 41 nan nan nan nan 41 42 42 43 nan nan nan nan nan nan nan nan nan nan nan nan nan nan nan nan nan nan nan nan nan nan nan nan nan nan nan nan nan nan nan nan nan nan nan nan nan nan nan nan nan nan nan nan nan nan nan nan nan nan nan nan nan nan nan nan nan
60 60 61 60 60 58 56 53 53 52 53 53 52 52 49 46 nan nan 40 40 nan nan nan nan 41 nan nan nan nan nan nan nan nan nan nan nan nan nan nan nan nan nan nan nan nan nan nan nan nan nan nan nan nan nan nan nan nan nan nan nan nan nan nan nan nan nan nan nan nan nan nan nan nan nan nan nan nan nan nan nan nan nan nan nan nan
60 59 61 61 57 52 53 53 54 54 54 53 49 47 44 43 41 40 40 40 39 nan nan nan nan nan nan nan nan nan nan nan nan nan nan nan nan nan nan nan nan nan nan nan nan nan nan nan nan nan nan nan nan nan nan nan nan nan nan nan nan nan nan nan nan nan nan nan nan nan nan nan nan nan nan nan nan nan nan nan nan nan nan nan nan
60 60 61 63 55 46 48 49 48 46 45 44 41 40 39 38 39 40 40 41 41 nan nan nan nan nan nan nan nan nan nan nan nan nan nan nan nan nan nan nan nan nan nan nan nan nan nan nan nan nan nan nan nan nan nan nan nan nan nan nan nan nan nan nan nan nan nan nan nan nan nan nan nan nan nan nan nan nan nan nan nan nan nan nan nan
nan 56 55 57 52 50 45 44 43 39 37 37 36 36 38 39 39 40 42 42 41 nan nan nan nan nan nan nan nan nan nan nan nan nan nan nan nan nan nan nan nan nan nan nan nan nan nan nan nan nan nan nan nan nan nan nan nan nan nan nan nan nan nan nan nan nan nan nan nan nan nan nan nan nan nan nan nan nan nan nan nan nan nan nan nan
50 51 46 42 44 43 41 40 36 35 35 35 36 38 nan nan nan nan nan nan nan nan nan nan nan nan nan nan nan nan nan nan nan nan nan nan nan nan nan nan nan nan nan nan nan nan nan nan nan nan nan nan nan nan nan nan nan nan nan nan nan nan nan nan nan nan nan nan nan nan nan nan nan nan nan nan nan nan nan nan nan nan nan nan nan
48 46 44 31 28 33 36 30 30 34 35 36 37 38 39 nan nan nan nan nan nan nan nan nan nan nan nan nan nan nan nan nan nan nan nan nan nan nan nan nan nan nan nan nan nan nan nan nan nan nan nan nan nan nan nan nan nan nan nan nan nan nan nan nan nan nan nan nan nan nan nan nan nan nan nan nan nan nan nan nan nan nan nan nan nan
40 37 33 27 25 29 33 30 31 32 36 37 37 nan nan nan nan nan nan nan nan nan nan nan nan nan nan nan nan nan nan nan nan nan nan nan nan nan nan nan nan nan nan nan nan nan nan nan nan nan nan nan nan nan nan nan nan nan nan nan nan nan nan nan nan nan nan nan nan nan nan nan nan nan nan nan nan nan nan nan nan nan nan nan nan
29 28 26 28 27 31 30 31 34 36 38 nan nan nan nan nan nan nan nan nan nan nan nan nan nan nan nan nan nan nan nan nan nan nan nan nan nan nan nan nan nan nan nan nan nan nan nan nan nan nan nan nan nan nan nan nan nan nan nan nan nan nan nan nan nan nan nan nan nan nan nan nan nan nan nan nan nan nan nan nan nan nan nan nan nan
28 28 29 28 28 29 31 36 37 35 nan nan nan nan nan nan nan nan nan nan nan nan nan nan nan nan nan nan nan nan nan nan nan nan nan nan nan nan nan nan nan nan nan nan nan nan nan nan nan nan nan nan nan nan nan nan nan nan nan nan nan nan nan nan nan nan nan nan nan nan nan nan nan nan nan nan nan nan nan nan nan nan nan nan nan
29 31 32 32 33 33 34 36 36 nan nan nan nan nan nan nan nan nan nan nan nan nan nan nan nan nan nan nan nan nan nan nan nan nan nan nan nan nan nan nan nan nan nan nan nan nan nan nan nan nan nan nan nan nan nan nan nan nan nan nan nan nan nan nan nan nan nan nan nan nan nan nan nan nan nan nan nan nan nan nan nan nan nan nan nan
Wind_Direction
340 338 335 342 340 338 331 321 321 321 327 331 333 331 330 335 338 334 329 332 330 332 334 335 337 339 340 341 343 342 340 340 338 335 332 333 333 331 329 330 331 330 330 331 328 326 325 320 318 317 314 314 314 309 302 297 294 295 294 293 293 292 295 301 305 302 nan 294 297 298 299 nan nan nan nan 301 301 303 307 nan nan 314 316 nan nan
347 344 346 347 349 342 334 323 320 320 331 334 335 335 335 336 336 330 337 329 330 334 338 336 336 337 339 342 343 343 340 338 338 336 336 335 335 332 331 330 330 330 328 330 330 327 324 323 323 323 319 317 316 314 308 301 295 294 295 296 296 297 297 300 303 300 297 nan 290 nan 292 295 nan nan nan nan nan nan nan nan 307 309 nan nan nan
345 345 349 350 350 340 329 324 324 330 337 335 339 340 339 334 332 334 335 331 329 334 336 336 336 337 338 341 341 339 337 337 337 338 338 338 335 333 332 332 331 331 331 331 330 326 321 323 324 323 320 319 319 318 311 305 299 298 298 296 297 297 297 300 299 300 nan nan nan nan 292 291 nan nan 293 296 294 nan nan nan nan 307 307 nan nan
344 347 353 354 348 337 331 327 332 335 341 338 342 340 336 333 331 333 333 331 331 331 334 336 336 338 339 339 338 337 337 337 339 338 336 334 335 335 333 332 331 333 334 333 331 327 323 319 321 321 320 320 320 320 317 309 303 298 295 295 297 298 297 296 300 nan nan nan nan nan nan nan nan nan nan 291 nan nan nan nan nan nan nan nan nan
338 346 351 354 350 342 335 331 336 341 343 337 342 340 338 335 331 335 330 334 332 330 334 336 339 340 341 340 339 340 339 339 339 335 329 329 333 335 334 332 331 334 337 335 331 327 324 321 319 318 318 320 321 322 320 316 308 300 296 296 297 298 296 297 298 297 nan nan nan nan nan nan nan nan nan nan nan nan nan nan nan nan nan nan nan
335 339 342 350 350 345 337 334 339 343 341 337 342 345 342 338 334 329 331 336 337 337 338 339 341 344 343 340 340 341 338 337 335 330 330 332 334 335 336 335 333 331 335 335 333 326 323 320 318 317 317 320 321 321 321 319 310 304 299 297 298 298 299 297 296 297 297 nan nan nan nan nan nan nan nan 294 nan nan nan nan nan nan 300 298 nan
329 332 336 344 345 342 336 336 331 333 334 336 338 345 346 340 334 333 334 341 343 342 342 342 342 341 341 339 340 339 337 334 329 327 332 333 334 338 337 335 333 331 331 333 331 326 321 318 318 318 319 320 319 321 322 319 314 308 303 300 298 297 298 298 297 298 299 300 nan nan nan nan nan nan nan nan 297 nan nan nan nan nan nan nan nan
321 327 329 337 343 341 332 325 322 325 328 331 335 340 339 334 335 334 336 343 343 342 342 343 340 337 338 338 339 338 334 331 328 331 335 337 336 336 337 333 332 332 329 328 326 323 317 314 316 318 319 317 317 317 320 322 316 310 305 299 297 296 296 296 296 297 299 300 303 303 nan nan nan nan 277 nan nan nan nan 312 nan nan nan nan nan
313 319 324 334 339 334 320 309 311 315 322 328 328 327 332 335 336 337 339 341 336 338 340 339 336 335 336 338 338 337 332 329 328 331 336 336 334 336 335 333 331 330 328 325 322 319 315 314 315 318 317 320 323 322 322 322 316 313 306 301 298 297 295 294 296 298 300 302 302 300 299 298 nan nan nan nan nan nan nan 307 305 nan nan nan nan
305 310 325 332 326 321 312 305 308 313 317 324 324 322 322 324 326 332 336 337 333 332 335 335 334 336 337 337 336 334 329 326 329 335 337 332 331 331 332 332 329 327 324 321 318 316 315 314 315 321 323 324 324 326 327 327 323 316 309 303 301 298 296 294 295 297 300 303 305 304 303 302 nan nan nan nan nan nan nan nan 301 nan nan nan nan
298 306 321 319 312 308 305 304 304 311 315 313 309 308 310 310 314 321 327 330 330 327 329 331 332 333 335 334 334 330 326 324 329 335 337 334 329 332 333 329 326 324 323 322 319 314 313 314 311 309 313 318 319 325 326 324 320 319 314 307 302 297 293 291 292 295 300 304 306 305 306 306 nan nan nan nan nan nan nan nan nan nan nan nan nan
296 303 304 299 300 303 303 302 302 305 304 303 297 297 300 307 312 314 318 323 322 319 324 328 328 327 327 329 330 326 323 324 329 334 335 334 334 332 328 324 323 324 323 321 317 314 311 307 305 307 308 310 312 312 317 320 318 315 311 304 298 294 291 290 290 291 296 302 306 308 306 307 306 303 nan nan nan nan nan nan nan nan 289 290 nan
292 294 292 293 297 297 297 299 300 298 297 289 279 285 300 308 310 310 315 315 311 317 322 321 322 322 324 327 327 323 322 324 329 333 334 334 336 332 325 325 324 322 320 319 316 313 311 307 305 305 307 314 310 303 300 294 296 302 300 292 286 284 283 285 287 292 296 303 307 309 311 308 nan nan 296 288 nan nan nan nan nan nan nan nan 297
287 291 290 291 291 290 291 293 292 289 283 277 274 286 301 309 307 303 302 306 313 315 314 317 317 320 322 324 323 320 321 323 328 331 333 333 333 328 321 321 321 321 321 319 317 315 313 308 307 307 309 302 294 297 298 295 295 294 290 289 292 291 288 294 302 306 307 306 307 311 311 307 308 299 293 292 294 295 295 nan nan 292 294 298 299
283 285 289 288 284 282 285 285 282 278 278 277 277 287 298 300 301 298 301 308 310 311 313 315 316 317 318 318 317 317 319 322 327 330 332 329 320 313 318 315 314 319 321 321 317 315 311 310 309 305 298 298 301 297 299 301 302 302 295 293 301 305 299 299 302 302 303 306 309 313 312 309 309 308 304 300 303 303 302 nan nan nan 301 297 296
277 279 284 281 280 278 278 275 273 272 275 278 281 287 292 297 299 294 295 298 301 302 306 310 313 314 315 314 313 316 315 322 326 328 326 314 314 327 325 323 323 322 321 317 315 313 312 312 305 301 302 299 300 303 303 305 308 308 301 296 302 306 304 304 305 303 304 306 309 312 313 313 312 311 309 308 306 304 301 299 nan nan nan nan nan
274 278 281 277 273 271 271 272 272 274 278 282 285 288 291 292 290 288 292 296 298 301 304 305 307 310 312 311 311 312 312 321 323 324 320 320 329 331 330 328 326 325 322 316 314 314 310 306 306 306 302 303 302 306 316 313 311 314 310 306 306 305 304 301 307 313 316 317 316 314 312 311 312 312 311 309 306 302 304 305 nan nan nan nan nan
269 272 275 275 271 267 267 271 275 278 281 285 286 284 285 286 289 291 295 297 299 301 300 301 305 309 311 310 311 311 313 321 325 325 322 326 327 329 332 330 326 320 318 317 315 311 308 308 304 304 306 304 313 320 319 317 319 321 316 312 306 303 302 300 301 303 306 310 314 317 317 316 315 315 314 315 315 308 306 310 nan nan nan nan nan
264 269 272 272 268 264 265 269 273 278 280 280 282 285 287 290 291 292 293 295 299 301 302 303 303 306 308 308 308 308 312 321 324 318 321 324 325 327 329 326 323 320 317 314 311 308 305 309 318 314 308 316 326 329 331 323 321 320 317 309 306 303 302 300 302 303 304 306 307 308 309 313 312 310 309 nan nan nan nan nan nan nan 294 298 nan
259 260 263 266 263 260 263 267 270 275 277 278 281 284 283 286 291 292 291 292 295 296 298 300 302 304 305 304 304 309 315 313 312 316 318 325 329 326 324 323 322 320 315 312 310 nan nan 310 312 318 321 nan nan 327 325 325 319 315 309 308 305 305 301 301 304 306 307 308 309 310 312 311 311 310 310 310 309 308 310 308 304 304 nan nan nan
254 257 259 263 263 263 263 268 273 274 277 279 281 282 284 286 287 289 290 290 294 297 298 296 296 298 301 301 300 304 308 310 313 317 321 325 328 327 321 321 316 315 315 314 316 nan nan nan 310 318 326 326 323 nan nan 323 319 310 308 307 305 302 300 303 305 303 303 nan nan nan nan 310 310 309 309 307 303 301 302 304 306 nan nan 308 306
254 256 259 262 264 264 265 266 269 270 273 277 279 279 279 285 289 292 292 291 293 295 295 295 294 296 297 296 296 302 308 311 311 318 320 321 323 324 317 317 317 316 317 319 nan nan nan 312 308 311 316 320 329 331 327 323 314 304 301 299 299 299 301 302 303 nan nan nan nan nan nan nan nan nan nan nan nan nan nan nan nan 304 306 308 310
254 255 256 258 260 260 261 265 266 267 270 274 277 278 281 288 292 293 292 291 293 295 297 298 299 299 297 296 298 304 308 311 314 315 320 319 324 321 320 318 321 317 318 318 317 317 314 309 300 293 297 312 321 320 312 306 301 300 300 300 300 300 301 303 306 308 310 310 nan nan nan nan nan nan nan nan nan nan nan nan nan nan nan nan nan
253 254 254 255 256 256 258 261 262 266 270 271 272 278 284 288 291 291 291 293 296 300 301 302 302 303 303 303 304 305 306 306 311 317 317 320 322 320 321 321 nan 317 317 318 317 315 310 300 293 292 295 304 311 310 306 303 301 302 304 303 305 305 306 307 309 nan nan nan nan nan nan nan nan nan nan nan nan nan nan nan nan nan nan nan nan
252 253 253 252 253 253 255 256 258 261 266 271 276 280 285 289 290 291 293 295 300 303 304 302 303 305 306 307 306 305 306 308 311 315 315 316 320 322 324 nan nan 318 315 313 310 309 305 301 298 296 296 303 307 306 302 300 300 302 305 307 308 306 308 308 nan nan nan nan nan nan nan nan nan nan nan 305 302 nan nan nan nan nan nan nan nan
251 251 250 250 253 255 257 257 259 261 263 267 272 278 283 284 284 287 291 297 301 303 301 299 301 303 304 304 305 306 307 309 311 309 309 313 319 323 nan nan 314 314 307 308 308 307 307 304 300 296 297 303 305 303 300 302 305 303 305 nan nan nan nan nan nan nan nan nan nan nan nan nan nan nan nan nan nan nan nan nan nan nan nan nan nan
249 247 248 249 251 255 258 259 261 263 265 268 272 277 280 281 283 287 290 294 297 298 297 297 298 299 300 301 302 304 306 308 306 304 305 308 311 nan nan nan 308 307 308 308 306 305 305 304 301 302 302 308 304 300 299 298 nan nan nan nan nan nan nan nan nan nan nan nan nan nan nan nan nan nan nan nan nan nan nan nan nan nan nan nan nan
246 247 248 249 250 253 256 260 259 258 258 262 266 269 274 281 285 287 290 292 294 295 295 296 297 298 299 300 303 304 305 304 304 306 307 308 nan nan 310 nan nan nan 313 312 311 308 305 300 297 299 301 300 298 nan nan nan nan nan nan nan nan nan nan nan 317 nan nan nan nan nan nan nan nan nan nan nan nan nan nan nan nan nan nan nan nan
243 245 246 248 249 250 253 255 258 260 260 261 263 264 267 273 280 281 277 279 288 295 296 295 294 295 297 301 303 303 303 304 309 307 nan nan 311 nan nan nan nan nan nan 315 311 309 303 301 302 302 302 301 nan nan nan nan nan 314 nan nan nan nan nan nan nan nan nan nan nan nan nan nan nan nan nan nan nan nan nan nan nan nan nan nan nan
241 244 245 247 249 251 254 255 258 260 262 265 268 266 264 265 266 276 281 277 282 294 295 294 294 293 295 299 302 305 307 307 305 304 nan nan nan nan nan nan nan nan 315 318 313 310 308 nan nan nan 306 308 311 313 316 315 314 312 nan nan nan nan nan nan nan nan nan nan nan nan nan nan nan nan nan nan nan nan nan nan nan nan nan nan nan
238 242 245 246 249 252 255 255 257 259 263 267 268 270 269 263 264 266 272 277 280 288 296 296 298 300 302 301 295 288 300 305 308 nan 308 310 310 nan nan nan nan 317 317 312 nan nan 309 308 307 308 310 311 314 315 315 313 312 312 314 315 nan nan nan nan nan nan nan nan nan nan nan nan nan nan nan nan nan nan nan nan nan nan nan nan nan
238 241 244 249 252 253 254 257 259 262 263 265 267 268 268 271 268 267 269 272 273 274 281 293 300 302 304 303 301 294 294 302 307 307 307 307 307 307 307 308 310 nan nan nan nan 307 304 306 308 309 310 nan nan nan 314 311 311 313 315 317 320 319 nan nan nan nan nan nan nan nan nan nan nan nan nan nan nan nan nan nan nan nan nan nan nan
240 245 248 251 252 255 257 258 260 263 265 265 266 267 271 274 277 278 273 273 273 275 276 278 283 289 294 297 299 302 304 304 306 304 304 304 304 303 302 nan nan nan 307 307 nan 304 304 305 nan nan nan nan nan 309 309 312 313 315 315 317 nan nan nan nan nan nan nan nan nan nan nan nan nan nan nan nan nan nan nan nan nan nan nan nan nan
244 246 249 251 252 253 256 257 259 261 263 265 267 270 272 275 280 283 283 281 278 277 276 278 281 285 284 288 293 294 296 298 299 300 302 304 304 304 303 302 301 300 304 307 306 nan nan nan nan nan nan nan nan 303 304 305 308 nan nan nan nan nan nan nan nan nan nan nan nan nan nan nan nan nan nan nan nan nan nan nan nan nan nan nan nan
243 250 256 252 251 253 255 258 261 263 264 266 269 272 274 277 281 283 284 285 286 288 290 287 281 279 288 290 290 293 295 296 299 302 303 305 305 305 301 302 303 304 304 304 nan nan nan nan nan nan nan nan nan nan nan nan nan nan nan nan nan nan nan nan nan nan nan nan nan nan nan nan nan nan nan nan nan nan nan nan nan nan nan nan nan
244 245 246 250 251 252 255 258 259 260 262 266 270 273 276 278 278 278 279 283 289 292 289 287 288 285 284 285 288 291 292 295 297 300 302 305 308 307 305 307 307 309 310 nan nan nan nan nan nan nan nan nan nan nan nan nan nan nan nan nan nan nan nan nan nan nan nan nan nan nan nan nan nan nan nan nan nan nan nan nan nan nan nan nan nan
243 245 246 247 249 251 255 258 260 263 267 272 272 273 275 275 275 277 281 288 291 290 290 291 291 nan nan 288 288 287 289 292 294 296 299 303 305 305 305 308 310 311 nan nan nan nan nan nan nan nan nan nan nan nan nan nan nan nan nan nan nan nan nan nan nan nan nan nan nan nan nan nan nan nan nan nan nan nan nan nan nan nan nan nan nan
246 247 248 250 250 251 253 257 262 269 272 273 274 275 275 275 278 283 289 292 292 nan nan nan nan nan nan nan 298 296 295 295 294 293 297 299 302 305 306 nan nan nan nan nan nan nan nan nan nan nan nan nan nan nan nan nan nan nan nan nan nan nan nan nan nan nan nan nan nan nan nan nan nan nan nan nan nan nan nan nan nan nan nan nan nan
246 253 255 255 255 256 256 257 262 267 270 273 275 277 278 280 285 291 291 nan nan nan nan nan nan nan nan 297 297 298 298 nan nan nan nan nan nan nan nan nan nan nan nan nan nan nan nan nan nan nan nan nan nan nan nan nan nan nan nan nan nan nan nan nan nan nan nan nan nan nan nan nan nan nan nan nan nan nan nan nan nan nan nan nan nan
256 257 258 259 257 260 262 263 265 267 269 273 277 279 283 288 292 nan nan nan nan nan nan nan nan 297 298 299 nan nan nan nan nan nan nan nan nan nan nan nan nan nan nan nan nan nan nan nan nan nan nan nan nan nan nan nan nan nan nan nan nan nan nan nan nan nan nan nan nan nan nan nan nan nan nan nan nan nan nan nan nan nan nan nan nan
256 257 257 258 261 261 262 264 265 268 270 275 278 283 288 291 290 289 289 289 nan nan nan nan 296 297 302 306 nan nan nan nan nan nan nan nan nan nan nan nan nan nan nan nan nan nan nan nan nan nan nan nan nan nan nan nan nan nan nan nan nan nan nan nan nan nan nan nan nan nan nan nan nan nan nan nan nan nan nan nan nan nan nan nan nan
253 253 257 257 258 259 261 263 266 268 271 273 277 283 286 286 nan nan 288 289 nan nan nan nan 296 nan nan nan nan nan nan nan nan nan nan nan nan nan nan nan nan nan nan nan nan nan nan nan nan nan nan nan nan nan nan nan nan nan nan nan nan nan nan nan nan nan nan nan nan nan nan nan nan nan nan nan nan nan nan nan nan nan nan nan nan
260 260 261 259 255 256 260 261 262 265 270 273 275 277 279 283 286 286 287 290 292 nan nan nan nan nan nan nan nan nan nan nan nan nan nan nan nan nan nan nan nan nan nan nan nan nan nan nan nan nan nan nan nan nan nan nan nan nan nan nan nan nan nan nan nan nan nan nan nan nan nan nan nan nan nan nan nan nan nan nan nan nan nan nan nan
258 261 263 263 261 257 261 263 264 269 274 279 280 284 288 286 285 286 288 288 290 nan nan nan nan nan nan nan nan nan nan nan nan nan nan nan nan nan nan nan nan nan nan nan nan nan nan nan nan nan nan nan nan nan nan nan nan nan nan nan nan nan nan nan nan nan nan nan nan nan nan nan nan nan nan nan nan nan nan nan nan nan nan nan nan
nan 260 261 264 265 265 263 265 268 272 276 277 279 279 279 282 284 286 286 289 291 nan nan nan nan nan nan nan nan nan nan nan nan nan nan nan nan nan nan nan nan nan nan nan nan nan nan nan nan nan nan nan nan nan nan nan nan nan nan nan nan nan nan nan nan nan nan nan nan nan nan nan nan nan nan nan nan nan nan nan nan nan nan nan nan
259 260 262 267 273 272 269 269 271 272 274 275 275 275 nan nan nan nan nan nan nan nan nan nan nan nan nan nan nan nan nan nan nan nan nan nan nan nan nan nan nan nan nan nan nan nan nan nan nan nan nan nan nan nan nan nan nan nan nan nan nan nan nan nan nan nan nan nan nan nan nan nan nan nan nan nan nan nan nan nan nan nan nan nan nan
263 261 256 244 246 262 270 268 269 273 273 272 273 275 277 nan nan nan nan nan nan nan nan nan nan nan nan nan nan nan nan nan nan nan nan nan nan nan nan nan nan nan nan nan nan nan nan nan nan nan nan nan nan nan nan nan nan nan nan nan nan nan nan nan nan nan nan nan nan nan nan nan nan nan nan nan nan nan nan nan nan nan nan nan nan
257 261 261 254 254 260 264 267 266 269 271 274 274 nan nan nan nan nan nan nan nan nan nan nan nan nan nan nan nan nan nan nan nan nan nan nan nan nan nan nan nan nan nan nan nan nan nan nan nan nan nan nan nan nan nan nan nan nan nan nan nan nan nan nan nan nan nan nan nan nan nan nan nan nan nan nan nan nan nan nan nan nan nan nan nan
263 264 265 267 264 266 273 272 270 271 275 nan nan nan nan nan nan nan nan nan nan nan nan nan nan nan nan nan nan nan nan nan nan nan nan nan nan nan nan nan nan nan nan nan nan nan nan nan nan nan nan nan nan nan nan nan nan nan nan nan nan nan nan nan nan nan nan nan nan nan nan nan nan nan nan nan nan nan nan nan nan nan nan nan nan
257 264 267 266 269 271 269 268 271 271 nan nan nan nan nan nan nan nan nan nan nan nan nan nan nan nan nan nan nan nan nan nan nan nan nan nan nan nan nan nan nan nan nan nan nan nan nan nan nan nan nan nan nan nan nan nan nan nan nan nan nan nan nan nan nan nan nan nan nan nan nan nan nan nan nan nan nan nan nan nan nan nan nan nan nan
255 258 260 261 261 262 265 271 271 nan nan nan nan nan nan nan nan nan nan nan nan nan nan nan nan nan nan nan nan nan nan nan nan nan nan nan nan nan nan nan nan nan nan nan nan nan nan nan nan nan nan nan nan nan nan nan nan nan nan nan nan nan nan nan nan nan nan nan nan nan nan nan nan nan nan nan nan nan nan nan nan nan nan nan nan